Location: Halouny
(49.8871°N, 14.2034°E)
Time: 20:31:37
(UTC+00:00)

Daily predictions for brighter satellites

Satellite Brightness Start Highest point End
(mag) Time Altitude Azimuth Time Altitude Azimuth Time Altitude Azimuth
SL-19 R/B 4.4 16:01:31 10° SSE 16:07:29 75° ENE 16:13:10 10° NNW
SL-16 R/B 3.4 16:04:12 10° N 16:10:15 52° WNW 16:16:17 10° SW
Cosmos 2369 Rocket 3.7 16:07:15 10° N 16:10:42 16° NNE 16:14:08 10° ENE
ADEOS Rocket 3.9 16:05:29 10° S 16:10:54 49° W 16:16:13 10° NNW
ACS3 Solar Sail 2.7 16:07:36 10° ESE 16:12:56 29° ENE 16:18:16 10° N
CZ-2D R/B 3.5 16:08:56 10° SSE 16:13:10 81° ENE 16:17:26 10° NNW
COSMOS 2428 2.8 16:07:59 10° SSW 16:13:36 64° ESE 16:19:14 10° NE
Cosmos 2333 Rocket 3.4 16:09:38 10° WSW 16:14:52 38° NW 16:20:09 10° NNE
Cosmos 1634 Rocket 4.0 16:09:35 10° N 16:15:57 76° E 16:22:15 10° SSE
Cosmos 990 Rocket 4.0 16:11:29 10° NNW 16:16:45 74° ENE 16:21:59 10° SSE
DNEPR-1 R/B 3.8 16:12:56 10° NW 16:17:55 55° NE 16:22:12 10° ESE
Cosmos 372 Rocket 4.5 16:13:16 10° N 16:17:57 35° NE 16:22:35 10° ESE
Cosmos 1174 3.7 16:15:40 10° NNW 16:19:11 64° NE 16:23:25 10° SE
IGS 5A 3.5 16:18:09 10° SSE 16:22:02 51° ENE 16:25:57 10° N
Cosmos 2322 Rocket 3.7 16:19:27 10° WSW 16:24:20 30° NW 16:29:16 10° NNE
Cosmos 1869 Rocket 3.8 16:20:12 10° NNW 16:24:39 76° W 16:29:05 10° S
Meteor 1-16 Rocket 4.2 16:21:31 10° N 16:26:57 66° ENE 16:32:32 10° SSE
Cosmos 2360 Rocket 3.6 16:22:12 10° WSW 16:27:17 33° NW 16:32:25 10° NNE
AQUARIUS 4.1 16:23:02 10° SSE 16:27:26 69° ENE 16:31:52 10° N
JB-3 4.3 16:23:46 10° NNE 16:27:39 84° WNW 16:31:27 10° SSW
BREEZE-M TANK 3.8 16:27:17 10° W 16:30:45 41° S 16:35:35 10° ESE
Cosmos 2344 3.5 16:23:40 10° SSW 16:31:14 68° SE 16:38:30 10° NE
Meteor 2-17 Rocket 4.4 16:25:49 10° S 16:31:47 65° E 16:37:48 10° NNE
SL-16 R/B 4.2 16:30:34 10° W 16:34:42 20° NW 16:38:50 10° N
Cosmos 1707 Rocket 3.9 16:32:45 10° SSE 16:36:58 44° E 16:41:11 10° NNE
Okean 3 3.7 16:33:16 10° SSE 16:37:11 46° E 16:41:09 10° NNE
Cosmos 1937 Rocket 3.9 16:32:56 10° NNW 16:37:45 39° ENE 16:42:35 10° SE
ASTEX 1 4.4 16:33:33 10° SSW 16:38:15 51° W 16:43:00 10° NNW
Meteor 1-31 Rocket 3.5 16:36:04 10° SE 16:39:04 26° ENE 16:42:05 10° N
Okean 2 3.7 16:37:53 10° SSE 16:41:35 40° E 16:45:18 10° NNE
Cosmos 1943 Rocket 2.2 16:39:29 10° NNW 16:45:11 84° ENE 16:50:49 10° SSE
CZ-4 R/B 4.5 16:41:25 10° SSE 16:45:19 51° ENE 16:49:13 10° N
CZ-2C R/B 3.8 16:48:33 19° ENE 16:48:40 19° ENE 16:51:08 10° NNE
Cosmos 2237 Rocket 2.4 16:45:15 10° S 16:50:46 53° ESE 16:56:09 11° NE
RESURS DK-1 2.2 16:48:06 10° NNW 16:52:09 87° ENE 16:56:10 10° SSE
Cosmos 1862 Rocket 3.6 16:50:32 10° S 16:54:49 60° E 16:59:11 10° NNE
BlueWalker 3 1.9 16:54:12 10° WNW 16:57:49 57° NNE 16:59:51 24° E
Cosmos 1455 4.0 16:55:19 10° NNW 16:58:09 29° W 17:00:58 10° SSW
BREEZE-M DEB (TANK) 1.6 16:56:26 10° WSW 16:58:40 54° SSE 17:00:09 24° E
Cosmos 2278 Rocket 2.7 16:53:37 10° NW 16:59:14 63° WSW 17:04:48 10° SSE
COSMO-SKYMED 1 2.7 16:56:28 10° NNE 17:00:44 51° E 17:04:57 10° S
NOAA 6 4.1 16:56:01 10° SE 17:00:57 53° ENE 17:05:57 10° N
Cosmos 2219 Rocket 3.7 16:57:23 10° WSW 17:02:22 32° NW 17:07:23 10° NNE
CZ-4B R/B 3.8 17:00:30 10° SE 17:03:57 46° ENE 17:07:22 10° N
ISS -3.3 17:01:32 10° SW 17:04:47 47° SSE 17:06:06 29° E
Cosmos 2180 Rocket 4.5 16:58:36 10° N 17:04:58 86° E 17:11:11 10° S
CZ-4C R/B 2.3 17:01:03 10° S 17:05:09 41° ESE 17:08:01 22° ENE
Nadezhda 4 Rocket 4.0 17:02:35 10° SSE 17:08:30 54° E 17:14:29 10° NNE
Cosmos 1763 Rocket 4.0 17:07:38 10° SW 17:12:47 61° WNW 17:17:53 10° NNE
USA 306 2.3 17:10:43 10° WNW 17:12:55 38° NNE 17:12:55 38° NNE
YAOGAN 1 2.6 17:08:49 10° SSE 17:12:58 54° ENE 17:17:10 10° N
Cosmos 1733 Rocket 3.6 17:10:05 10° NNW 17:14:25 60° W 17:18:46 10° S
ATLAS 5 CENTAUR R/B 2.4 17:12:26 10° S 17:14:21 20° SE 17:14:21 20° SE
Cosmos 540 Rocket 3.7 17:13:21 10° SSW 17:18:28 68° WNW 17:23:35 10° NNE
Landsat 7 3.8 17:14:26 10° SSE 17:19:07 87° WSW 17:23:51 10° NNW
USA 215 3.7 17:16:12 20° NE 17:20:36 53° NNW 17:26:54 10° W
SPOT 1/Viking Rocket 3.7 17:15:52 10° SE 17:20:48 47° ENE 17:25:44 10° N
Cosmos 468 Rocket 4.1 17:17:09 10° SSW 17:22:21 79° WNW 17:27:14 12° NNE
Cosmos 1703 Rocket 4.0 17:19:30 10° SSE 17:23:39 40° E 17:25:04 31° NE
Cosmos 2228 Rocket 3.5 17:21:19 10° SSW 17:25:48 64° WNW 17:30:22 10° N
Resurs 1-3 3.7 17:24:27 10° SE 17:28:35 49° ENE 17:32:47 10° N
Cosmos 1898 Rocket 3.9 17:24:30 10° NNW 17:29:46 67° WSW 17:35:01 10° S
Cosmos 1656 Rocket 3.7 17:24:27 10° NNW 17:29:50 54° NE 17:33:23 21° SE
Cosmos 841 Rocket 3.4 17:26:34 10° S 17:31:46 66° ESE 17:35:00 23° NNE
Cosmos 1703 3.1 17:33:25 10° S 17:36:27 53° SE 17:36:27 53° SE
Cosmos 1553 Rocket 4.4 17:33:02 10° N 17:38:37 35° ENE 17:39:07 34° E
Okean 1-7 3.0 17:35:10 10° SSW 17:39:27 82° W 17:43:22 12° N
SL-16 R/B 2.6 17:34:47 10° S 17:40:02 40° ESE 17:40:55 38° E
Cosmos 1980 4.0 17:34:56 10° SW 17:40:33 68° WNW 17:44:57 17° NNE
Cosmos 1953 4.5 17:39:58 10° NNW 17:43:05 25° W 17:46:10 10° SSW
SKYMED 2 4.2 17:44:30 10° N 17:48:47 55° WNW 17:53:01 10° SSW
ADEOS 3.8 17:48:47 45° ENE 17:49:01 46° ENE 17:54:00 10° N
Cosmos 1818 3.6 17:47:32 10° NW 17:53:02 83° SW 17:56:19 25° SSE
Resurs 01 Rocket 3.7 17:57:25 15° N 17:57:25 15° N 17:58:14 10° N
Cosmos 1092 Rocket 3.9 17:48:20 10° S 17:54:24 62° E 18:00:33 10° NNE
ATLAS 2AS CENTAUR R/B 2.6 17:47:56 10° NW 17:54:47 89° NE 17:59:05 24° SE
DMSP B5D1-3 4.4 17:53:59 46° NE 17:55:15 60° ESE 18:00:16 10° S
Cosmos 839 Rocket 4.5 17:49:50 10° S 17:55:50 39° ESE 17:55:54 39° ESE
Cosmos 2369 Rocket 2.2 17:50:26 10° NNW 17:55:59 57° NE 17:56:55 50° E
ACS3 Solar Sail 2.3 17:49:42 10° S 17:56:03 66° W 18:02:26 10° NNW
CBERS 1 LM4 rocket 4.4 17:52:01 10° SSE 17:57:04 71° ENE 18:02:22 10° NNW
COSMOS 2428 4.3 17:53:20 10° WSW 17:58:16 29° NW 18:02:53 11° NNE
Cosmos 1908 Rocket 4.3 18:03:14 10° NNW 18:07:29 52° W 18:11:39 10° S
BREEZE-M DEB (TANK) 2.9 18:00:58 10° W 18:07:22 82° W 18:07:22 82° W
Meteor 2-12 Rocket 4.4 18:05:44 10° SSW 18:11:49 83° W 18:17:59 10° N
CZ-4B DEB 4.1 18:12:01 65° E 18:12:14 66° ENE 18:17:42 10° N
Cosmos 1627 Rocket 4.5 18:11:05 10° S 18:17:28 90° W 18:23:55 10° N
Cosmos 2297 3.6 18:13:17 10° NNW 18:19:03 90° NNW 18:20:17 58° SSE
Cosmos 2263 4.2 18:14:19 10° NNW 18:19:33 63° NNE 18:19:33 63° NNE
CZ-2C R/B 4.4 18:22:18 27° WNW 18:22:18 27° WNW 18:24:25 10° NNW
Cosmos 2026 Rocket 4.0 18:16:49 10° SSW 18:23:12 81° W 18:29:36 10° N
Cosmos 1932 4.3 18:19:01 10° SSW 18:25:12 81° SE 18:25:50 72° ENE
BREEZE-M DEB (TANK) 3.1 18:18:19 10° WSW 18:28:56 79° S 18:28:56 79° S
Cosmos 2237 Rocket 3.6 18:29:56 10° WSW 18:35:04 34° NW 18:37:58 22° N
BlueWalker 3 4.0 18:32:04 10° WNW 18:33:53 26° W 18:33:53 26° W
ISS -0.8 18:38:08 10° W 18:39:01 17° W 18:39:01 17° W
Cosmos 2344 4.3 18:39:16 10° W 18:46:06 41° NNW 18:48:48 31° NNE
CZ-4C R/B 2.9 18:48:54 10° WSW 18:53:05 43° NW 18:53:05 43° NW
Meteor 1-24 Rocket 4.1 18:52:27 10° SSW 18:58:09 65° W 18:58:09 65° W
USA 215 3.7 19:03:33 49° N 19:03:33 49° N 19:09:20 10° WNW
SL-16 R/B 3.5 19:18:46 10° WSW 19:22:50 36° W 19:22:50 36° W
Cosmos 2369 Rocket 4.0 19:34:59 10° NW 19:38:44 26° W 19:38:44 26° W
ATLAS 2AS CENTAUR R/B 4.5 19:39:48 10° WNW 19:44:51 23° WSW 19:46:35 21° SW
